Location: Kam�li
(14.6864°N, 3.1482°W)
Time: 01:47:31
(UTC+00:00)

YAOGAN 1 - Pass Details

Date: 29 October 2020
Orbit: 618 x 620 km, 97.9° (Epoch: 02 December)

Event Time Altitude Azimuth Distance (km) Brightness Sun altitude
Rises 18:43:02 0° 150° (SSE) 2,884 5.8 -14.5°
Reaches altitude 10° 18:45:22 10° 141° (SE) 1,980 4.9 -15.1°
Maximum altitude 18:49:15 33° 76° (ENE) 1,036 3.1 -16.0°
Drops below altitude 10° 18:53:08 10° 12° (NNE) 1,981 4.9 -16.9°
Sets 18:55:28 0° 3° (N) 2,888 5.9 -17.5°
